Location: Oshawa
(43.9000°N, 78.8670°W)
Time: 03:39:44
(UTC-04:00)

Thor Agena Rocket - Visible Passes

Search period start: 25 April 2014 00:00
Search period end: 05 May 2014 00:00
Orbit: 762 x 809 km, 99.0° (Epoch: 24 April)

Date Brightness Start Highest point End Pass type
(mag) Time Alt. Az. Time Alt. Az. Time Alt. Az.
25 Apr 4.6 01:24:30 40° NE 01:24:30 40° NE 01:28:33 10° N visible
25 Apr 5.4 03:05:07 20° WNW 03:05:07 20° WNW 03:07:22 10° NW visible
26 Apr 5.2 00:53:10 25° ENE 00:53:10 25° ENE 00:57:14 10° N visible
26 Apr 4.7 02:33:47 34° NW 02:33:47 34° NW 02:37:07 10° NNW visible
27 Apr 5.8 00:21:51 14° ENE 00:22:34 15° ENE 00:25:21 10° NNE visible
27 Apr 4.2 02:02:28 53° NNW 02:02:28 53° NNW 02:06:28 10° NNW visible
28 Apr 4.4 01:31:09 47° NE 01:31:09 47° NE 01:35:31 10° N visible
28 Apr 5.4 03:11:46 19° WNW 03:11:46 19° WNW 03:14:04 10° NW visible
29 Apr 5.1 00:59:50 28° ENE 00:59:50 28° ENE 01:04:16 10° N visible
29 Apr 4.7 02:40:27 33° WNW 02:40:27 33° WNW 02:43:57 10° NNW visible
30 Apr 5.7 00:28:31 16° ENE 00:29:22 16° ENE 00:32:33 10° NNE visible
30 Apr 4.0 02:09:08 56° NNW 02:09:08 56° NNW 02:13:21 10° NNW visible
01 May 4.1 01:37:49 55° NE 01:37:49 55° NE 01:42:28 10° N visible
01 May 5.4 03:18:26 18° WNW 03:18:26 18° WNW 03:20:44 10° NW visible
02 May 4.9 01:06:30 32° ENE 01:06:38 32° ENE 01:11:17 10° N visible
02 May 4.7 02:47:07 32° WNW 02:47:07 32° WNW 02:50:45 10° NNW visible
03 May 5.6 00:35:11 18° ENE 00:36:09 18° ENE 00:39:41 10° NNE visible
03 May 3.9 02:15:48 58° NW 02:15:48 58° NW 02:20:13 10° NNW visible
04 May 6.1 00:05:11 10° ENE 00:05:49 10° NE 00:06:27 10° NE visible
04 May 3.9 01:44:29 63° NE 01:44:29 63° NE 01:49:23 10° N visible
04 May 5.4 03:25:06 16° WNW 03:25:06 16° WNW 03:27:20 10° NW visible
